Flag for France Weather past 2 weeks in Nîmes, France

Now
50 °F

Partly sunny.


Feels Like: 48 °F
Forecast: 38 / 49 °F
Wind: 6 mph from Northwest

Location: Nimes / Garons

Current Time: Jan 31, 2015 at 3:14:53 PM

Latest Report: Jan 31, 2015 at 2:30 PM


Visibility: N/A

Pressure: 29.15 "Hg

Humidity: 54%

Dew point: 34 °F

Location of NîmesLocation

Historic Weather in Nîmes — Graph

°F

Nîmes temperature yesterday

Maximum temperature yesterday: 50 °F (at 1:00 PM)
Minimum temperature yesterday: 37 °F (at 8:00 AM)
Average temperature yesterday: 44 °F

Past Weeks' High & Low Weather Summary

 TemperatureHumidityPressure
High55 °F (Jan 16, 2:00 PM)100% (Jan 16, 3:00 PM)30.30 "Hg (Jan 16, 3:00 PM)
Low30 °F (Jan 18, 7:00 AM)35% (Jan 24, 2:30 PM)29.09 "Hg (Jan 31, 5:00 AM)
Average42 °F73%29.87 "Hg
* Reported Jan 16 2:00 PM — Jan 31 2:00 PM, Nîmes, Weather by CustomWeather, © 2014

Note: Actual official high and low records may vary slightly from our data, if they occured in-between our weather recording intervals... More about our weather records

Advertising

Nîmes weather history for previous 24 hours

 ConditionsComfort  
Time TempWeatherWind HumidityBarometerVisibility
2:00 PM
Jan 31
50 °FPartly sunny.8 mph50%29.15 "HgN/A
1:30 PM52 °FBroken clouds.6 mph50%29.15 "HgN/A
1:00 PM50 °FClear.3 mph54%29.15 "HgN/A
12:30 PM48 °FClear.2 mph62%29.15 "HgN/A
12:00 PM46 °FClear.5 mph66%29.15 "HgN/A
11:30 AM46 °FClear.3 mph62%29.15 "HgN/A
11:00 AM46 °FClear.1 mph62%29.15 "HgN/A
10:30 AM43 °FClear.2 mph71%29.15 "HgN/A
10:00 AM41 °FClear.No wind76%29.12 "HgN/A
9:30 AM37 °FClear.No wind81%29.12 "HgN/A
9:00 AM36 °FClear.1 mph87%29.12 "HgN/A
8:30 AM36 °FClear.2 mph81%29.12 "HgN/A
8:00 AM34 °FChilly.3 mph87%29.12 "HgN/A
7:30 AM34 °FClear.2 mph87%29.12 "HgN/A
7:00 AM36 °FClear.5 mph81%29.12 "HgN/A
6:30 AM36 °FClear.No wind81%29.09 "HgN/A
6:00 AM36 °FClear.3 mph81%29.09 "HgN/A
5:30 AM36 °FClear.2 mph87%29.09 "HgN/A
5:00 AM36 °FClear.2 mph87%29.09 "HgN/A
4:00 AM37 °FClear.1 mph81%29.12 "HgN/A
3:30 AM36 °FClear.No wind87%29.12 "HgN/A
3:00 AM36 °FClear.No wind87%29.12 "HgN/A
2:30 AM37 °FClear.3 mph87%29.15 "HgN/A
2:00 AM37 °FClear.1 mph87%29.15 "HgN/A
1:30 AM37 °FClear.3 mph87%29.15 "HgN/A
1:00 AM37 °FClear.5 mph87%29.15 "HgN/A
12:30 AM37 °FClear.5 mph87%29.15 "HgN/A
12:00 AM37 °FClear.3 mph87%29.15 "HgN/A
11:30 PM
Jan 30
37 °FClear.5 mph87%29.15 "HgN/A
11:00 PM39 °FClear.3 mph75%29.15 "HgN/A
10:30 PM39 °FClear.8 mph81%29.15 "HgN/A
10:00 PM39 °FClear.9 mph81%29.15 "HgN/A
9:30 PM39 °FPassing clouds.7 mph81%29.15 "HgN/A
9:00 PM41 °FMostly cloudy.5 mph76%29.15 "HgN/A
8:30 PM41 °FClear.6 mph76%29.15 "HgN/A
8:00 PM41 °FClear.7 mph81%29.15 "HgN/A
7:30 PM41 °FClear.12 mph81%29.15 "HgN/A
7:00 PM41 °FClear.8 mph81%29.18 "HgN/A
6:30 PM43 °FClear.9 mph71%29.18 "HgN/A
6:00 PM45 °FClear.12 mph61%29.15 "HgN/A
5:30 PM46 °FClear.12 mph53%29.15 "HgN/A
5:00 PM48 °FClear.9 mph50%29.15 "HgN/A
4:30 PM48 °FClear.12 mph46%29.18 "HgN/A
4:00 PM50 °FClear.9 mph43%29.18 "HgN/A
3:30 PM48 °FClear.13 mph40%29.18 "HgN/A
3:00 PM50 °FClear.10 mph37%29.18 "HgN/A
Weather by CustomWeather, © 2014

See weather overviewHow to use our weather pages